User: anonymous   Login
Location: Ch�tillon
(48.8024°N, 2.2935°E)
Time: 01:28:02
(UTC+00:00)
Language:

EO-88 - Orbit

View from above orbital plane
View from above orbital plane
View from above satellite
View from above satellite

Ground track
Ground track

The orbit data is extracted from the following two-line orbital elements,

1 42017U 17008BX  22176.45357999  .00013471  00000-0  40029-3 0  9993
2 42017  97.2689 242.4517 0004782 195.1585 164.9516 15.34872813298303
Epoch (UTC): 25 June 2022 10:53:09
Eccentricity: 0.0004782
inclination: 97.2689°
perigee height: 458 km
apogee height: 464 km
right ascension of ascending node: 242.4517°
argument of perigee: 195.1585°
revolutions per day: 15.34872813
mean anomaly at epoch: 164.9516°
orbit number at epoch: 29830

The dashed part of the orbit path shows where the satellite is in the earth's shadow,  

DLR